{"data":{"norad_id":68860,"epoch":"2026-05-25T00:49:46.550784Z","epoch_age_seconds":62246,"freshness":"FRESH","line1":"1 68860U 26094X   26145.03456656  .00037881  00000+0  69456-3 0  9991","line2":"2 68860  97.2846 159.7046 0000812 104.9378 255.1963 15.49200432  4499","mean_motion":15.49200432,"eccentricity":8.12e-5,"inclination_deg":97.2846,"raan_deg":159.7046,"arg_perigee_deg":104.9378,"mean_anomaly_deg":255.1963,"bstar":0.00069456,"rev_number":449,"period_min":92.951174699905,"perigee_km":418.51189635437,"apogee_km":419.61576176901,"semimajor_km":6797.2008290617,"source":"CELESTRAK","updated_at":"2026-05-25T13:38:22.065089Z"}}